When you browse on this site, cookies collect data to enhance your experience and personalize the content and advertising you see.
Visit our Privacy Policy to learn more. By continuing to use the site, you agree to this use of cookies and data.
  • In Österreich
  • Länderverzeichnis
  • Für 7 Tage
  • Wassertemperatur
  • Satellitenkarten
  • Wetterkarte
  • News
  • Widgets
  • user-avatar
    Anmelden

    Stündliche Wetter Roluos

    Heute, 21 Februar, Donnerstag

    Zeit Temperatur Niederschläge Wind Luftdruck Luftfeuchtigkeit
    00:00 +29°C° 0 mm 1 m/S 759 mmHg 60%
    01:00 +29°C° 0 mm 2 m/S 759 mmHg 63%
    02:00 +28°C° 0 mm 2 m/S 759 mmHg 66%
    03:00 +28°C° 0 mm 3 m/S 759 mmHg 69%
    04:00 +28°C° 0 mm 3 m/S 758 mmHg 72%
    05:00 +27°C° 0 mm 3 m/S 759 mmHg 73%
    06:00 +27°C° 0 mm 3 m/S 759 mmHg 74%
    07:00 +28°C° 0 mm 3 m/S 759 mmHg 73%
    08:00 +30°C° 0 mm 3 m/S 759 mmHg 66%
    09:00 +33°C° 0 mm 3 m/S 760 mmHg 58%
    10:00 +35°C° 0 mm 3 m/S 760 mmHg 51%
    11:00 +36°C° 0 mm 2 m/S 759 mmHg 47%
    12:00 +37°C° 0 mm 2 m/S 758 mmHg 42%
    13:00 +39°C° 0 mm 2 m/S 758 mmHg 38%
    14:00 +39°C° 0 mm 1 m/S 757 mmHg 38%
    15:00 +39°C° 0 mm 1 m/S 757 mmHg 37%
    16:00 +36°C° 0 mm 0 m/S 756 mmHg 36%
    17:00 +34°C° 0 mm 0 m/S 756 mmHg 39%
    18:00 +33°C° 0 mm 0 m/S 756 mmHg 42%
    19:00 +32°C° 0 mm 0 m/S 756 mmHg 45%
    20:00 +31°C° 0 mm 0 m/S 757 mmHg 47%
    21:00 +30°C° 0 mm 0 m/S 757 mmHg 48%
    22:00 +32°C° 0 mm 1 m/S 757 mmHg 50%
    23:00 +31°C° 0 mm 1 m/S 757 mmHg 52%

    Morgen, 22 Februar, Freitag

    Zeit Temperatur Niederschläge Wind Luftdruck Luftfeuchtigkeit
    00:00 +31°C° 0 mm 2 m/S 757 mmHg 54%
    01:00 +30°C° 0 mm 2 m/S 757 mmHg 56%
    02:00 +30°C° 0 mm 3 m/S 757 mmHg 61%
    03:00 +29°C° 0 mm 3 m/S 756 mmHg 67%
    04:00 +28°C° 0 mm 4 m/S 756 mmHg 73%
    05:00 +28°C° 0 mm 4 m/S 757 mmHg 75%
    06:00 +28°C° 0 mm 4 m/S 757 mmHg 77%
    07:00 +28°C° 0 mm 3 m/S 758 mmHg 79%
    08:00 +30°C° 0 mm 3 m/S 758 mmHg 71%
    09:00 +33°C° 0 mm 3 m/S 758 mmHg 63%
    10:00 +35°C° 0 mm 3 m/S 758 mmHg 56%
    11:00 +36°C° 0 mm 2 m/S 758 mmHg 50%
    12:00 +38°C° 0 mm 2 m/S 757 mmHg 45%
    13:00 +39°C° 0 mm 1 m/S 756 mmHg 40%
    14:00 +39°C° 0 mm 1 m/S 755 mmHg 40%
    15:00 +39°C° 0 mm 2 m/S 755 mmHg 39%
    16:00 +39°C° 0 mm 2 m/S 754 mmHg 39%
    17:00 +37°C° 0 mm 2 m/S 754 mmHg 42%
    18:00 +36°C° 0 mm 2 m/S 755 mmHg 46%
    19:00 +35°C° 0 mm 2 m/S 755 mmHg 49%
    20:00 +34°C° 0 mm 3 m/S 755 mmHg 52%
    21:00 +33°C° 0 mm 3 m/S 756 mmHg 55%
    22:00 +33°C° 0 mm 3 m/S 757 mmHg 58%
    23:00 +32°C° 0 mm 4 m/S 757 mmHg 61%

    übermorgen, 23 Februar, Samstag

    Zeit Temperatur Niederschläge Wind Luftdruck Luftfeuchtigkeit
    00:00 +30°C° 0 mm 5 m/S 757 mmHg 64%
    01:00 +30°C° 0 mm 5 m/S 756 mmHg 68%
    02:00 +29°C° 0 mm 5 m/S 756 mmHg 70%
    03:00 +29°C° 0 mm 5 m/S 756 mmHg 72%
    04:00 +28°C° 0 mm 5 m/S 756 mmHg 74%
    05:00 +28°C° 0 mm 5 m/S 756 mmHg 74%
    06:00 +28°C° 0 mm 5 m/S 757 mmHg 74%
    07:00 +28°C° 0 mm 4 m/S 757 mmHg 73%
    08:00 +30°C° 0 mm 4 m/S 757 mmHg 66%
    09:00 +32°C° 0 mm 4 m/S 758 mmHg 59%
    10:00 +34°C° 0 mm 4 m/S 758 mmHg 52%
    11:00 +36°C° 0 mm 3 m/S 757 mmHg 48%
    12:00 +37°C° 0 mm 3 m/S 756 mmHg 44%
    13:00 +38°C° 0 mm 2 m/S 755 mmHg 40%
    14:00 +38°C° 0 mm 2 m/S 755 mmHg 39%
    15:00 +38°C° 0 mm 3 m/S 754 mmHg 38%
    16:00 +38°C° 0 mm 3 m/S 753 mmHg 38%
    17:00 +37°C° 0 mm 3 m/S 754 mmHg 42%
    18:00 +35°C° 0 mm 4 m/S 754 mmHg 46%
    19:00 +34°C° 0 mm 4 m/S 755 mmHg 50%
    20:00 +33°C° 0 mm 4 m/S 755 mmHg 52%
    21:00 +32°C° 0 mm 4 m/S 756 mmHg 54%
    22:00 +31°C° 0 mm 3 m/S 756 mmHg 57%
    23:00 +30°C° 0 mm 3 m/S 756 mmHg 59%

    24 Februar, Sonntag

    Zeit Temperatur Niederschläge Wind Luftdruck Luftfeuchtigkeit
    00:00 +30°C° 0 mm 3 m/S 756 mmHg 61%
    01:00 +29°C° 0 mm 3 m/S 756 mmHg 63%
    02:00 +29°C° 0 mm 3 m/S 756 mmHg 66%
    03:00 +28°C° 0 mm 4 m/S 756 mmHg 68%
    04:00 +27°C° 0 mm 4 m/S 756 mmHg 71%
    05:00 +27°C° 0 mm 4 m/S 756 mmHg 72%
    06:00 +27°C° 0 mm 4 m/S 757 mmHg 74%
    07:00 +27°C° 0 mm 4 m/S 757 mmHg 75%
    08:00 +29°C° 0 mm 4 m/S 758 mmHg 67%
    09:00 +32°C° 0 mm 4 m/S 758 mmHg 60%
    10:00 +34°C° 0 mm 4 m/S 758 mmHg 52%
    11:00 +36°C° 0 mm 3 m/S 757 mmHg 47%
    12:00 +37°C° 0 mm 2 m/S 756 mmHg 42%
    13:00 +39°C° 0 mm 2 m/S 755 mmHg 38%
    14:00 +39°C° 0 mm 2 m/S 754 mmHg 36%
    15:00 +39°C° 0 mm 2 m/S 754 mmHg 34%
    16:00 +39°C° 0 mm 1 m/S 753 mmHg 33%
    17:00 +37°C° 0 mm 1 m/S 753 mmHg 36%
    18:00 +35°C° 0 mm 1 m/S 754 mmHg 39%
    19:00 +33°C° 0 mm 1 m/S 754 mmHg 42%
    20:00 +33°C° 0 mm 1 m/S 755 mmHg 43%
    21:00 +32°C° 0 mm 1 m/S 755 mmHg 44%
    22:00 +32°C° 0 mm 1 m/S 756 mmHg 45%
    23:00 +31°C° 0 mm 2 m/S 756 mmHg 48%

    25 Februar, Montag

    Zeit Temperatur Niederschläge Wind Luftdruck Luftfeuchtigkeit
    00:00 +31°C° 0 mm 3 m/S 756 mmHg 51%
    01:00 +30°C° 0 mm 4 m/S 756 mmHg 54%
    02:00 +29°C° 0 mm 4 m/S 756 mmHg 61%
    03:00 +29°C° 0 mm 4 m/S 756 mmHg 68%
    04:00 +28°C° 0 mm 4 m/S 755 mmHg 74%
    05:00 +28°C° 0 mm 4 m/S 756 mmHg 76%
    06:00 +28°C° 0 mm 4 m/S 757 mmHg 77%
    07:00 +28°C° 0 mm 4 m/S 757 mmHg 78%
    08:00 +30°C° 0 mm 4 m/S 758 mmHg 69%
    09:00 +33°C° 0 mm 3 m/S 758 mmHg 61%
    10:00 +35°C° 0 mm 3 m/S 758 mmHg 52%
    11:00 +36°C° 0 mm 3 m/S 757 mmHg 47%
    12:00 +37°C° 0 mm 3 m/S 756 mmHg 42%
    13:00 +39°C° 0 mm 3 m/S 755 mmHg 37%
    14:00 +39°C° 0 mm 3 m/S 754 mmHg 35%
    15:00 +39°C° 0 mm 3 m/S 754 mmHg 33%
    16:00 +39°C° 0 mm 3 m/S 753 mmHg 31%
    17:00 +38°C° 0 mm 3 m/S 754 mmHg 35%
    18:00 +36°C° 0 mm 3 m/S 754 mmHg 38%
    19:00 +35°C° 0 mm 3 m/S 755 mmHg 42%
    20:00 +34°C° 0 mm 3 m/S 755 mmHg 44%
    21:00 +32°C° 0 mm 2 m/S 756 mmHg 45%
    22:00 +32°C° 0 mm 2 m/S 757 mmHg 47%
    23:00 +32°C° 0 mm 4 m/S 757 mmHg 53%

    26 Februar, Dienstag

    Zeit Temperatur Niederschläge Wind Luftdruck Luftfeuchtigkeit
    00:00 +30°C° 0 mm 5 m/S 757 mmHg 59%
    01:00 +29°C° 0 mm 7 m/S 757 mmHg 65%
    02:00 +29°C° 0 mm 6 m/S 756 mmHg 67%
    03:00 +28°C° 0 mm 6 m/S 756 mmHg 69%
    04:00 +28°C° 0 mm 5 m/S 756 mmHg 72%
    05:00 +28°C° 0 mm 5 m/S 757 mmHg 73%
    06:00 +28°C° 0 mm 4 m/S 757 mmHg 74%
    07:00 +27°C° 0 mm 3 m/S 758 mmHg 75%
    08:00 +29°C° 0 mm 4 m/S 758 mmHg 66%
    09:00 +32°C° 0 mm 4 m/S 759 mmHg 58%
    10:00 +34°C° 0 mm 4 m/S 759 mmHg 50%
    11:00 +35°C° 0 mm 3 m/S 758 mmHg 44%
    12:00 +37°C° 0 mm 3 m/S 757 mmHg 38%
    13:00 +39°C° 0 mm 2 m/S 756 mmHg 33%
    14:00 +39°C° 0 mm 2 m/S 755 mmHg 31%
    15:00 +39°C° 0 mm 2 m/S 755 mmHg 30%
    16:00 +39°C° 0 mm 2 m/S 754 mmHg 28%
    17:00 +38°C° 0 mm 2 m/S 754 mmHg 31%
    18:00 +36°C° 0 mm 2 m/S 755 mmHg 34%
    19:00 +34°C° 0 mm 3 m/S 755 mmHg 36%
    20:00 +34°C° 0 mm 2 m/S 756 mmHg 38%
    21:00 +32°C° 0 mm 2 m/S 756 mmHg 39%
    22:00 +31°C° 0 mm 2 m/S 757 mmHg 40%
    23:00 +30°C° 0 mm 3 m/S 757 mmHg 45%
    Mehr zeigen